Terminal Aerodrome Forecast
Issued by NWS

Home | Current Version | Previous Version | Text Only | Print | Product List | Glossary On
Versions: 1 2 3 4 5 6 7 8 9 10 11 12 13 14
000
FTAK31 PANC 010531
TAFAEN
TAF
PAEN 010531Z 0106/0206 07009KT P6SM SCT050 BKN080
     FM011800 03017KT P6SM -SHRA SCT040 BKN060
     FM020000 VRB06KT P6SM -SHRA SCT040 BKN060=

USA.gov is the U.S. government's official web portal to all federal, state and local government web resources and services.